This is the latest recevied weather packets stored in our database for station/object 9W2IJB-3. If no packets are shown the sender has not sent any weather packets the latest 10 day(s).
| Time | Temp. | Humidity | Pressure | Rain* | Wind** | Luminosity | Snow |
|---|---|---|---|---|---|---|---|
| 1777790285 | 31.11° C | 62% | 1020 hPa | - | - | - | - |
| 1777789085 | 31.11° C | 61% | 1020.1 hPa | - | - | - | - |
| 1777787885 | 31.11° C | 61% | 1020.5 hPa | - | - | - | - |
| 1777786684 | 31.11° C | 64% | 1021 hPa | - | - | - | - |
| 1777784285 | 30.56° C | 64% | 1021.7 hPa | - | - | - | - |
| 1777783085 | 31.11° C | 65% | 1022 hPa | - | - | - | - |
| 1777781885 | 31.11° C | 65% | 1022.2 hPa | - | - | - | - |
| 1777780685 | 30.56° C | 66% | 1022.3 hPa | - | - | - | - |
| 1777779518 | 30° C | 70% | 1022.5 hPa | - | - | - | - |
| 1777779485 | 30° C | 70% | 1022.5 hPa | - | - | - | - |
| 1777778285 | 28.33° C | 74% | 1022.7 hPa | - | - | - | - |
| 1777777085 | 28.33° C | 73% | 1022.6 hPa | - | - | - | - |
| 1777775885 | 28.33° C | 74% | 1022.6 hPa | - | - | - | - |
| 1777774685 | 27.78° C | 76% | 1022.4 hPa | - | - | - | - |
| 1777773485 | 27.22° C | 76% | 1022.3 hPa | - | - | - | - |
| 1777772285 | 27.22° C | 77% | 1022.2 hPa | - | - | - | - |
| 1777771085 | 26.67° C | 77% | 1022 hPa | - | - | - | - |
| 1777769885 | 26.11° C | 78% | 1021.7 hPa | - | - | - | - |
| 1777768685 | 25.56° C | 77% | 1021.1 hPa | - | - | - | - |
| 1777767484 | 25.56° C | 77% | 1020.8 hPa | - | - | - | - |
| 1777766284 | 25.56° C | 77% | 1020.7 hPa | - | - | - | - |
| 1777765084 | 25.56° C | 77% | 1020.4 hPa | - | - | - | - |
| 1777763884 | 25.56° C | 77% | 1020.3 hPa | - | - | - | - |
| 1777762684 | 25° C | 76% | 1020.1 hPa | - | - | - | - |
| 1777761556 | 25.56° C | 76% | 1019.9 hPa | - | - | - | - |
* Rain since midnight (hover to see other rain measurements)
** Current wind speed in m/s (hover to see current wind gust speed)